Location: Bidart
(43.4376°N, 1.5913°W)
Time: 19:47:31
(UTC+00:00)

H-2A DEB - Visible Passes

Search period start: 13 April 2026 00:00
Search period end: 23 April 2026 00:00
Orbit: 585 x 593 km, 98.2° (Epoch: 13 April)

Date Brightness Start Highest point End Pass type
(mag) Time Alt. Az. Time Alt. Az. Time Alt. Az.
13 Apr ? 01:25:53 17° N 01:25:53 17° N 01:26:53 10° N visible
14 Apr ? 01:33:28 18° N 01:33:28 18° N 01:34:34 10° N visible
15 Apr ? 01:41:03 18° N 01:41:03 18° N 01:42:13 10° N visible
16 Apr ? 01:48:38 19° NNW 01:48:38 19° NNW 01:49:50 10° NNW visible
17 Apr ? 00:19:42 11° NE 00:19:42 11° NE 00:20:02 10° NE visible
17 Apr ? 01:56:12 19° NNW 01:56:12 19° NNW 01:57:26 10° NNW visible
18 Apr ? 00:27:16 13° NE 00:27:16 13° NE 00:28:10 10° NNE visible
18 Apr ? 02:03:47 19° NNW 02:03:47 19° NNW 02:05:00 10° NNW visible
19 Apr ? 00:34:51 14° NE 00:34:51 14° NE 00:36:07 10° NNE visible
19 Apr ? 02:11:20 18° NNW 02:11:20 18° NNW 02:12:33 10° NNW visible
20 Apr ? 00:42:24 17° NE 00:42:24 17° NE 00:43:59 10° NNE visible
20 Apr ? 02:18:54 17° NW 02:18:54 17° NW 02:20:04 10° NNW visible
21 Apr ? 00:49:57 19° NE 00:49:57 19° NE 00:51:48 10° NNE visible
21 Apr ? 02:26:28 16° NW 02:26:28 16° NW 02:27:32 10° NNW visible
22 Apr ? 00:57:30 22° NE 00:57:30 22° NE 00:59:34 10° N visible
22 Apr ? 02:34:01 15° NW 02:34:01 15° NW 02:34:58 10° NW visible
